Time,TemperatureF,DewpointF,PressureIn,WindDirection,WindDirectionDegrees,WindSpeedMPH,WindSpeedGustMPH,Humidity,HourlyPrecipIn,Conditions,Clouds,dailyrainin,SoftwareType,DateUTC
2013-01-28 00:04:00,58.7,41.0,29.84,SSW,198,6.0,11.0,53,0.00,,,0.00,weatherlink.com 1.10,2013-01-28 07:04:00,
2013-01-28 00:19:00,58.3,41.0,29.84,SSW,198,7.0,11.0,54,0.00,,,0.00,weatherlink.com 1.10,2013-01-28 07:19:00,
2013-01-28 00:35:00,58.2,41.0,29.84,SW,221,8.0,14.0,54,0.00,,,0.00,weatherlink.com 1.10,2013-01-28 07:35:00,
2013-01-28 00:50:00,58.4,41.0,29.84,SSW,212,6.0,10.0,53,0.00,,,0.00,weatherlink.com 1.10,2013-01-28 07:50:00,
2013-01-28 01:05:00,57.2,41.0,29.84,SSW,201,5.0,10.0,55,0.00,,,0.00,weatherlink.com 1.10,2013-01-28 08:05:00,
2013-01-28 01:19:00,57.0,41.0,29.84,SSW,194,5.0,8.0,55,0.00,,,0.00,weatherlink.com 1.10,2013-01-28 08:19:00,
2013-01-28 01:35:00,56.3,41.0,29.85,South,174,4.0,7.0,56,0.00,,,0.00,weatherlink.com 1.10,2013-01-28 08:35:00,
2013-01-28 01:50:00,55.2,41.0,29.85,South,174,1.0,4.0,59,0.00,,,0.00,weatherlink.com 1.10,2013-01-28 08:50:00,
2013-01-28 02:05:00,54.5,41.0,29.85,South,179,5.0,6.0,60,0.00,,,0.00,weatherlink.com 1.10,2013-01-28 09:05:00,
2013-01-28 02:20:00,55.5,41.0,29.84,South,190,1.0,11.0,59,0.00,,,0.00,weatherlink.com 1.10,2013-01-28 09:20:00,
2013-01-28 02:35:00,55.7,41.0,29.85,SSW,206,7.0,9.0,59,0.00,,,0.00,weatherlink.com 1.10,2013-01-28 09:35:00,
2013-01-28 02:50:00,55.8,41.0,29.85,SSW,201,4.0,11.0,59,0.00,,,0.00,weatherlink.com 1.10,2013-01-28 09:50:00,
2013-01-28 03:05:00,56.4,42.0,29.84,SSW,197,4.0,10.0,58,0.00,,,0.00,weatherlink.com 1.10,2013-01-28 10:05:00,
2013-01-28 03:20:00,55.9,41.0,29.84,SSW,204,4.0,7.0,58,0.00,,,0.00,weatherlink.com 1.10,2013-01-28 10:20:00,
2013-01-28 03:35:00,55.0,41.0,29.85,South,182,5.0,7.0,60,0.00,,,0.00,weatherlink.com 1.10,2013-01-28 10:35:00,
2013-01-28 03:50:00,54.0,41.0,29.85,South,170,3.0,6.0,62,0.00,,,0.00,weatherlink.com 1.10,2013-01-28 10:50:00,
2013-01-28 04:05:00,53.5,41.0,29.85,South,182,4.0,7.0,64,0.00,,,0.00,weatherlink.com 1.10,2013-01-28 11:05:00,
2013-01-28 04:20:00,54.0,42.0,29.85,South,183,5.0,7.0,64,0.00,,,0.00,weatherlink.com 1.10,2013-01-28 11:20:00,
2013-01-28 04:35:00,54.3,43.0,29.85,SSW,194,5.0,7.0,65,0.00,,,0.00,weatherlink.com 1.10,2013-01-28 11:35:00,
2013-01-28 04:50:00,53.2,42.0,29.85,South,181,0.0,4.0,66,0.00,,,0.00,weatherlink.com 1.10,2013-01-28 11:50:00,
2013-01-28 05:05:00,52.6,42.0,29.85,South,178,0.0,2.0,68,0.00,,,0.00,weatherlink.com 1.10,2013-01-28 12:05:00,
2013-01-28 05:20:00,52.7,43.0,29.85,SSW,209,1.0,4.0,69,0.00,,,0.00,weatherlink.com 1.10,2013-01-28 12:20:00,
2013-01-28 05:35:00,52.4,43.0,29.85,South,172,2.0,4.0,71,0.00,,,0.00,weatherlink.com 1.10,2013-01-28 12:35:00,
2013-01-28 05:50:00,51.8,43.0,29.86,South,177,3.0,5.0,73,0.00,,,0.00,weatherlink.com 1.10,2013-01-28 12:50:00,
2013-01-28 06:05:00,51.4,44.0,29.86,South,172,1.0,3.0,75,0.00,,,0.00,weatherlink.com 1.10,2013-01-28 13:05:00,
2013-01-28 06:20:00,51.3,44.0,29.87,South,179,1.0,2.0,77,0.00,,,0.00,weatherlink.com 1.10,2013-01-28 13:20:00,
2013-01-28 06:35:00,51.2,44.0,29.87,South,180,0.0,3.0,77,0.00,,,0.00,weatherlink.com 1.10,2013-01-28 13:35:00,
2013-01-28 06:50:00,51.2,44.0,29.87,South,179,0.0,0.0,77,0.00,,,0.00,weatherlink.com 1.10,2013-01-28 13:50:00,
2013-01-28 07:09:00,49.8,43.0,29.87,South,179,0.0,0.0,77,0.00,,,0.00,weatherlink.com 1.10,2013-01-28 14:09:00,
2013-01-28 07:21:00,49.6,43.0,29.87,South,179,0.0,0.0,79,0.00,,,0.00,weatherlink.com 1.10,2013-01-28 14:21:00,
2013-01-28 07:35:00,51.0,45.0,29.87,South,179,0.0,0.0,80,0.00,,,0.00,weatherlink.com 1.10,2013-01-28 14:35:00,
2013-01-28 07:50:00,53.1,47.0,29.87,South,179,0.0,0.0,79,0.00,,,0.00,weatherlink.com 1.10,2013-01-28 14:50:00,
2013-01-28 08:05:00,55.7,49.0,29.86,South,180,0.0,2.0,78,0.00,,,0.00,weatherlink.com 1.10,2013-01-28 15:05:00,
2013-01-28 08:21:00,58.3,51.0,29.86,South,179,1.0,2.0,78,0.00,,,0.00,weatherlink.com 1.10,2013-01-28 15:21:00,
2013-01-28 08:36:00,62.8,57.0,29.86,SW,219,12.0,12.0,82,0.00,,,0.00,weatherlink.com 1.10,2013-01-28 15:36:00,
2013-01-28 08:51:00,66.3,58.0,29.85,South,189,13.0,16.0,75,0.00,,,0.00,weatherlink.com 1.10,2013-01-28 15:51:00,
2013-01-28 09:05:00,67.5,59.0,29.85,SSW,195,14.0,18.0,73,0.00,,,0.00,weatherlink.com 1.10,2013-01-28 16:05:00,
2013-01-28 09:20:00,69.0,59.0,29.85,SW,217,14.0,23.0,71,0.00,,,0.00,weatherlink.com 1.10,2013-01-28 16:20:00,
2013-01-28 09:36:00,69.9,59.0,29.84,SSW,192,7.0,23.0,69,0.00,,,0.00,weatherlink.com 1.10,2013-01-28 16:36:00,
2013-01-28 09:51:00,70.2,60.0,29.84,SW,214,10.0,22.0,69,0.00,,,0.00,weatherlink.com 1.10,2013-01-28 16:51:00,
2013-01-28 10:21:00,69.8,60.0,29.83,SSW,206,17.0,23.0,71,0.00,,,0.00,weatherlink.com 1.10,2013-01-28 17:21:00,
2013-01-28 10:36:00,70.3,60.0,29.83,SSW,197,16.0,19.0,71,0.00,,,0.00,weatherlink.com 1.10,2013-01-28 17:36:00,
2013-01-28 10:51:00,70.3,60.0,29.82,South,190,9.0,21.0,70,0.00,,,0.00,weatherlink.com 1.10,2013-01-28 17:51:00,
2013-01-28 11:06:00,70.8,61.0,29.82,SSW,196,15.0,23.0,70,0.00,,,0.00,weatherlink.com 1.10,2013-01-28 18:06:00,
2013-01-28 11:21:00,70.8,61.0,29.80,South,190,15.0,20.0,71,0.00,,,0.00,weatherlink.com 1.10,2013-01-28 18:21:00,
2013-01-28 11:36:00,71.9,60.0,29.79,South,172,17.0,22.0,67,0.00,,,0.00,weatherlink.com 1.10,2013-01-28 18:36:00,
2013-01-28 11:51:00,72.2,59.0,29.78,South,190,17.0,24.0,64,0.00,,,0.00,weatherlink.com 1.10,2013-01-28 18:51:00,
2013-01-28 12:06:00,73.6,58.0,29.77,SSW,206,15.0,25.0,59,0.00,,,0.00,weatherlink.com 1.10,2013-01-28 19:06:00,
2013-01-28 12:21:00,73.8,58.0,29.76,SW,214,16.0,27.0,58,0.00,,,0.00,weatherlink.com 1.10,2013-01-28 19:21:00,
2013-01-28 12:36:00,73.7,58.0,29.74,South,174,8.0,21.0,58,0.00,,,0.00,weatherlink.com 1.10,2013-01-28 19:36:00,
2013-01-28 12:51:00,74.9,57.0,29.73,SSW,209,12.0,22.0,54,0.00,,,0.00,weatherlink.com 1.10,2013-01-28 19:51:00,
2013-01-28 13:06:00,75.7,57.0,29.72,SW,224,14.0,19.0,53,0.00,,,0.00,weatherlink.com 1.10,2013-01-28 20:06:00,
2013-01-28 13:21:00,76.4,56.0,29.71,South,189,15.0,21.0,50,0.00,,,0.00,weatherlink.com 1.10,2013-01-28 20:21:00,
2013-01-28 13:36:00,76.8,56.0,29.70,SSW,199,12.0,20.0,49,0.00,,,0.00,weatherlink.com 1.10,2013-01-28 20:36:00,
2013-01-28 13:51:00,77.7,56.0,29.69,SSW,193,12.0,23.0,47,0.00,,,0.00,weatherlink.com 1.10,2013-01-28 20:51:00,
2013-01-28 14:06:00,78.4,54.0,29.69,SSW,201,10.0,19.0,43,0.00,,,0.00,weatherlink.com 1.10,2013-01-28 21:06:00,
2013-01-28 14:21:00,78.7,53.0,29.69,South,188,8.0,20.0,41,0.00,,,0.00,weatherlink.com 1.10,2013-01-28 21:21:00,
2013-01-28 14:36:00,79.1,53.0,29.69,SSW,211,9.0,25.0,40,0.00,,,0.00,weatherlink.com 1.10,2013-01-28 21:36:00,
2013-01-28 14:51:00,79.2,52.0,29.68,SSW,200,11.0,23.0,39,0.00,,,0.00,weatherlink.com 1.10,2013-01-28 21:51:00,
2013-01-28 15:06:00,79.4,52.0,29.68,South,183,13.0,23.0,38,0.00,,,0.00,weatherlink.com 1.10,2013-01-28 22:06:00,
2013-01-28 15:21:00,79.2,51.0,29.68,SSW,206,8.0,20.0,38,0.00,,,0.00,weatherlink.com 1.10,2013-01-28 22:21:00,
2013-01-28 15:37:00,79.2,51.0,29.68,South,181,16.0,20.0,37,0.00,,,0.00,weatherlink.com 1.10,2013-01-28 22:37:00,
2013-01-28 15:51:00,78.6,49.0,29.67,South,175,14.0,22.0,36,0.00,,,0.00,weatherlink.com 1.10,2013-01-28 22:51:00,
2013-01-28 16:06:00,78.4,49.0,29.66,South,187,13.0,16.0,36,0.00,,,0.00,weatherlink.com 1.10,2013-01-28 23:06:00,
2013-01-28 16:22:00,77.8,49.0,29.66,SSW,211,7.0,16.0,37,0.00,,,0.00,weatherlink.com 1.10,2013-01-28 23:22:00,
2013-01-28 16:37:00,77.2,50.0,29.67,South,189,10.0,15.0,38,0.00,,,0.00,weatherlink.com 1.10,2013-01-28 23:37:00,
2013-01-28 16:52:00,76.3,48.0,29.66,SSW,204,6.0,12.0,37,0.00,,,0.00,weatherlink.com 1.10,2013-01-28 23:52:00,
2013-01-28 17:07:00,74.9,47.0,29.67,South,191,7.0,11.0,37,0.00,,,0.00,weatherlink.com 1.10,2013-01-29 00:07:00,
2013-01-28 17:22:00,73.6,46.0,29.67,SSW,199,4.0,7.0,37,0.00,,,0.00,weatherlink.com 1.10,2013-01-29 00:22:00,
2013-01-28 17:37:00,71.7,45.0,29.67,SSW,212,3.0,7.0,39,0.00,,,0.00,weatherlink.com 1.10,2013-01-29 00:37:00,
2013-01-28 17:52:00,70.2,45.0,29.68,South,189,2.0,6.0,41,0.00,,,0.00,weatherlink.com 1.10,2013-01-29 00:52:00,
2013-01-28 18:07:00,68.7,45.0,29.69,South,185,3.0,6.0,42,0.00,,,0.00,weatherlink.com 1.10,2013-01-29 01:07:00,
2013-01-28 18:22:00,68.3,45.0,29.70,South,181,4.0,7.0,43,0.00,,,0.00,weatherlink.com 1.10,2013-01-29 01:22:00,
2013-01-28 18:37:00,67.2,45.0,29.70,South,185,3.0,7.0,45,0.00,,,0.00,weatherlink.com 1.10,2013-01-29 01:37:00,
2013-01-28 18:52:00,67.0,44.0,29.70,South,189,7.0,9.0,44,0.00,,,0.00,weatherlink.com 1.10,2013-01-29 01:52:00,
2013-01-28 19:07:00,68.0,44.0,29.70,South,188,4.0,8.0,42,0.00,,,0.00,weatherlink.com 1.10,2013-01-29 02:07:00,
2013-01-28 19:22:00,67.5,43.0,29.70,SSW,196,4.0,9.0,42,0.00,,,0.00,weatherlink.com 1.10,2013-01-29 02:22:00,
2013-01-28 19:37:00,68.8,43.0,29.70,SSW,203,7.0,8.0,39,0.00,,,0.00,weatherlink.com 1.10,2013-01-29 02:37:00,
2013-01-28 19:52:00,68.1,43.0,29.70,South,182,5.0,9.0,41,0.00,,,0.00,weatherlink.com 1.10,2013-01-29 02:52:00,
2013-01-28 20:07:00,67.1,44.0,29.70,South,184,6.0,8.0,44,0.00,,,0.00,weatherlink.com 1.10,2013-01-29 03:07:00,
2013-01-28 20:22:00,67.9,46.0,29.69,South,190,3.0,10.0,45,0.00,,,0.00,weatherlink.com 1.10,2013-01-29 03:22:00,
2013-01-28 20:37:00,65.9,46.0,29.69,South,177,5.0,9.0,49,0.00,,,0.00,weatherlink.com 1.10,2013-01-29 03:37:00,
2013-01-28 20:52:00,64.9,47.0,29.69,SSE,166,4.0,7.0,52,0.00,,,0.00,weatherlink.com 1.10,2013-01-29 03:52:00,
2013-01-28 21:07:00,64.0,47.0,29.69,SSE,158,4.0,7.0,55,0.00,,,0.00,weatherlink.com 1.10,2013-01-29 04:07:00,
2013-01-28 21:22:00,64.8,49.0,29.69,SSW,198,5.0,9.0,58,0.00,,,0.00,weatherlink.com 1.10,2013-01-29 04:22:00,
2013-01-28 21:37:00,66.9,51.0,29.69,SSW,209,6.0,10.0,57,0.00,,,0.00,weatherlink.com 1.10,2013-01-29 04:37:00,
2013-01-28 21:52:00,66.6,51.0,29.69,SSW,193,6.0,7.0,58,0.00,,,0.00,weatherlink.com 1.10,2013-01-29 04:52:00,
2013-01-28 22:07:00,66.6,52.0,29.69,SSW,193,2.0,8.0,60,0.00,,,0.00,weatherlink.com 1.10,2013-01-29 05:07:00,
2013-01-28 22:22:00,66.5,53.0,29.68,South,190,4.0,9.0,63,0.00,,,0.00,weatherlink.com 1.10,2013-01-29 05:22:00,
2013-01-28 22:37:00,66.2,54.0,29.68,South,175,6.0,9.0,65,0.00,,,0.00,weatherlink.com 1.10,2013-01-29 05:37:00,
2013-01-28 23:08:00,65.3,55.0,29.68,SSW,205,2.0,7.0,69,0.00,,,0.00,weatherlink.com 1.10,2013-01-29 06:08:00,
2013-01-28 23:22:00,65.5,55.0,29.68,SW,226,6.0,8.0,70,0.00,,,0.00,weatherlink.com 1.10,2013-01-29 06:22:00,
2013-01-28 23:37:00,65.4,55.0,29.68,South,181,5.0,9.0,70,0.00,,,0.00,weatherlink.com 1.10,2013-01-29 06:37:00,
2013-01-28 23:52:00,64.4,56.0,29.67,SSE,159,3.0,5.0,73,0.00,,,0.00,weatherlink.com 1.10,2013-01-29 06:52:00,